Flag for Denmark Weather past 2 weeks in Roskilde, Denmark

Now
54 °F

Drizzle. Mostly cloudy.


Feels Like: 49 °F
Forecast: 48 / 60 °F
Wind: 15 mph from East

Location: Koebenhavn / Roskilde

Current Time: Oct 1, 2014 at 8:02:50 AM

Latest Report: Oct 1, 2014 at 7:20 AM


Visibility: 5 mi

Pressure: 30.27 "Hg

Humidity: 100%

Dew point: 54 °F

Location of RoskildeLocation

Historic Weather in Roskilde — Graph

°F

Roskilde temperature yesterday

Maximum temperature yesterday: 57 °F (at 1:20 PM)
Minimum temperature yesterday: 52 °F (at 12:50 AM)
Average temperature yesterday: 55 °F

Past Weeks' High & Low Weather Summary

 TemperatureHumidityPressure
High70 °F (Sep 19, 2:50 PM)100% (Sep 17, 2:20 AM)30.30 "Hg (Sep 17, 2:20 AM)
Low37 °F (Sep 23, 5:20 AM)50% (Sep 23, 11:50 AM)29.65 "Hg (Sep 24, 8:50 PM)
Average56 °F86%30.03 "Hg
* Reported Sep 16 6:20 AM — Oct 1 6:50 AM, Roskilde, Weather by CustomWeather, © 2014

Note: Actual official high and low records may vary slightly from our data, if they occured in-between our weather recording intervals... More about our weather records

Advertising

Roskilde weather history for previous 24 hours

 ConditionsComfort  
Time TempWeatherWind HumidityBarometerVisibility
6:50 AM
Oct 1
54 °FLight rain. Fog.14 mph100%30.27 "Hg3 mi
6:20 AM54 °FLight rain. Fog.15 mph100%30.27 "Hg3 mi
5:50 AM54 °FLight rain. Passing clouds.14 mph100%30.27 "HgN/A
5:20 AM55 °FLight rain. Mostly cloudy.14 mph94%30.27 "HgN/A
4:50 AM55 °FLight rain. Passing clouds.13 mph94%30.27 "HgN/A
4:20 AM55 °FLight rain. Mostly cloudy.14 mph94%30.27 "HgN/A
3:50 AM55 °FLight rain. Partly cloudy.15 mph94%30.27 "HgN/A
3:20 AM55 °FLight rain. Overcast.17 mph94%30.27 "HgN/A
2:50 AM55 °FLight rain. Passing clouds.16 mph94%30.30 "HgN/A
2:20 AM55 °FLight rain. Overcast.17 mph94%30.27 "HgN/A
1:50 AM55 °FLight rain. Passing clouds.17 mph94%30.30 "HgN/A
1:20 AM55 °FLight rain. Passing clouds.16 mph94%30.27 "HgN/A
12:50 AM55 °FLight rain. Partly cloudy.15 mph100%30.27 "HgN/A
12:20 AM55 °FLight rain. Mostly cloudy.14 mph100%30.27 "HgN/A
11:50 PM
Sep 30
57 °FLight rain. Passing clouds.13 mph94%30.27 "HgN/A
11:20 PM57 °FLight rain. Passing clouds.14 mph94%30.27 "HgN/A
10:50 PM57 °FPassing clouds.13 mph88%30.27 "HgN/A
10:20 PM55 °FOvercast.13 mph94%30.27 "HgN/A
9:50 PM55 °FPassing clouds.12 mph94%30.27 "HgN/A
9:20 PM55 °FPartly cloudy.10 mph88%30.27 "HgN/A
8:50 PM55 °FPartly cloudy.10 mph88%30.27 "HgN/A
8:20 PM55 °FLight rain. Partly cloudy.12 mph88%30.27 "HgN/A
7:50 PM55 °FLight rain. Partly cloudy.9 mph88%30.27 "HgN/A
7:20 PM55 °FLight rain. Overcast.10 mph88%30.27 "HgN/A
6:50 PM55 °FLight rain. Partly sunny.10 mph88%30.27 "HgN/A
6:20 PM55 °FLight rain. Partly sunny.10 mph88%30.27 "HgN/A
5:50 PM55 °FLight rain. Partly sunny.10 mph94%30.24 "HgN/A
5:20 PM55 °FLight rain. Partly sunny.7 mph94%30.27 "HgN/A
4:50 PM55 °FLight rain. Partly sunny.6 mph100%30.27 "Hg6 mi
4:20 PM57 °FSprinkles. Partly sunny.7 mph94%30.27 "HgN/A
3:50 PM57 °FSprinkles. Partly sunny.7 mph88%30.27 "HgN/A
3:20 PM57 °FSprinkles. Partly sunny.7 mph88%30.27 "HgN/A
2:50 PM55 °FSprinkles. Partly sunny.8 mph88%30.27 "HgN/A
2:20 PM55 °FPartly sunny.9 mph88%30.27 "HgN/A
1:50 PM55 °FSprinkles. Broken clouds.10 mph88%30.24 "HgN/A
1:20 PM57 °FSprinkles. Partly sunny.8 mph94%30.24 "HgN/A
12:50 PM55 °FSprinkles. Partly sunny.7 mph94%30.24 "HgN/A
12:20 PM55 °FLight rain. Broken clouds.7 mph88%30.24 "HgN/A
11:50 AM55 °FLight rain. Partly sunny.7 mph94%30.24 "HgN/A
11:20 AM55 °FLight rain. Broken clouds.7 mph94%30.24 "HgN/A
10:50 AM55 °FLight rain. Partly sunny.5 mph94%30.24 "HgN/A
10:20 AM55 °FLight rain. Partly sunny.6 mph94%30.24 "HgN/A
9:50 AM55 °FLight rain. Partly sunny.2 mph94%30.24 "HgN/A
9:20 AM55 °FLight rain. Partly sunny.1 mph94%30.24 "HgN/A
8:50 AM54 °FLight rain. Partly sunny.3 mph100%30.21 "Hg5 mi
8:20 AM55 °FLight rain. Partly sunny.6 mph94%30.21 "HgN/A
Weather by CustomWeather, © 2014

See weather overviewHow to use our weather pages